Flag for U.S.A. Weather past 2 weeks in Durham, North Carolina, U.S.A.

Now
31 °F

Passing clouds.


Feels Like: 26 °F
Forecast: 25 / 47 °F
Wind: 5 mph from North

Location: Raleigh-Durham International Airport

Current Time: Jan 30, 2015 at 11:40:31 PM

Latest Report: Jan 30, 2015 at 10:51 PM


Visibility: 10 mi

Pressure: 30.32 "Hg

Humidity: 35%

Dew point: 6 °F

Location of DurhamLocation

Historic Weather in Durham — Graph

°F

Durham temperature yesterday

Maximum temperature yesterday: 46 °F (at 4:01 PM)
Minimum temperature yesterday: 23 °F (at 2:51 AM)
Average temperature yesterday: 35 °F

Past Weeks' High & Low Weather Summary

 TemperatureHumidityPressure
High67 °F (Jan 20, 2:51 PM)93% (Jan 18, 5:02 AM)30.39 "Hg (Jan 18, 5:02 AM)
Low23 °F (Jan 29, 2:51 AM)22% (Jan 28, 3:51 PM)29.55 "Hg (Jan 24, 6:51 AM)
Average42 °F61%30.02 "Hg
* Reported Jan 15 9:51 PM — Jan 30 9:51 PM, Durham, Weather by CustomWeather, © 2014

Note: Actual official high and low records may vary slightly from our data, if they occured in-between our weather recording intervals... More about our weather records

Advertising

Durham weather history for previous 24 hours

 ConditionsComfort  
Time TempWeatherWind HumidityBarometerVisibility
9:51 PM
Jan 30
32 °FPassing clouds.8 mph35%30.30 "Hg10 mi
8:51 PM33 °FClear.6 mph33%30.27 "Hg10 mi
7:51 PM36 °FClear.6 mph30%30.25 "Hg10 mi
6:51 PM37 °FPassing clouds.8 mph30%30.22 "Hg10 mi
5:51 PM40 °FPassing clouds.8 mph32%30.18 "Hg10 mi
4:51 PM44 °FPassing clouds.12 mph27%30.15 "Hg10 mi
3:51 PM46 °FScattered clouds.14 mph26%30.12 "Hg10 mi
2:51 PM47 °FScattered clouds.7 mph28%30.10 "Hg10 mi
1:51 PM47 °FScattered clouds.14 mph29%30.09 "Hg10 mi
12:51 PM46 °FScattered clouds.14 mph35%30.09 "Hg10 mi
11:51 AM45 °FPartly sunny.13 mph34%30.11 "Hg10 mi
10:51 AM44 °FPartly sunny.15 mph37%30.11 "Hg10 mi
9:51 AM43 °FScattered clouds.7 mph42%30.09 "Hg10 mi
8:51 AM43 °FPassing clouds.10 mph43%30.06 "Hg10 mi
7:51 AM42 °FScattered clouds.7 mph51%30.04 "Hg10 mi
6:51 AM41 °FPassing clouds.5 mph58%30.01 "Hg10 mi
5:51 AM40 °FPassing clouds.3 mph60%29.98 "Hg10 mi
4:51 AM39 °FLight rain. Passing clouds.3 mph65%29.97 "Hg10 mi
3:51 AM38 °FMostly cloudy.6 mph65%29.96 "Hg10 mi
2:51 AM38 °FPartly cloudy.5 mph63%29.97 "Hg10 mi
1:51 AM40 °FPassing clouds.5 mph55%29.99 "Hg10 mi
12:51 AM38 °FPassing clouds.9 mph60%30.00 "Hg10 mi
11:51 PM
Jan 29
40 °FPassing clouds.9 mph53%30.02 "Hg10 mi
Weather by CustomWeather, © 2014

See weather overviewHow to use our weather pages